[[{"header":{"parameterUnit":"m.s-1","parameterCategory":1,"la1":30.2991,"la2":30.254,"lo1":-89.0895,"lo2":-89.0444,"dy":0.0017,"dx":0.0017,"nx":28,"ny":28,"refTime":"2025-06-17T21:00:00:Z","depth":0,"parameterNumber":2,"parameterNumberName":"U-component_of_WINDS"},"data":[0,0,0,0,0,0,0,0,0,0,0,0,0,0,0,0,0,0,0,0,0,0,0,0,0,0,0,0,0,0,0,0,0,0,0,0,0,0,0,0,0,0,0,0,0,0,0,0,0,0,0,0,0,0,0,0,0,0,-1.0777,-1.0776,0,-1.0671,-1.067,-1.0669,-1.0577,-1.0576,-1.0575,-1.0574,-1.0464,-1.0462,-1.046,0,0,0,0,0,0,0,0,0,0,0,0,0,-1.0899,-1.0897,-1.0777,-1.0776,-1.0775,-1.0671,-1.067,-1.0669,-1.0577,-1.0576,-1.0575,-1.0574,-1.0465,-1.0463,-1.046,0,0,0,0,0,0,0,0,0,0,0,0,0,-1.0825,-1.0897,-1.0777,-1.0717,-1.071,-1.0672,-1.067,-1.0668,-1.0578,-1.0576,-1.0574,-1.0573,-1.0466,-1.0463,-1.046,-1.0473,0,0,-1.0451,-1.045,0,0,0,0,0,0,0,0,-1.0829,-1.0821,-1.0727,-1.0721,-1.0713,-1.0636,-1.0673,-1.0603,-1.0578,-1.0628,-1.0574,-1.0572,-1.0523,-1.0515,-1.0498,-1.0468,-1.0463,-1.0451,-1.0449,-1.0448,-1.0447,0,0,0,0,0,0,0,-1.0835,-1.0825,-1.0735,-1.0726,-1.0717,-1.0694,-1.0682,-1.0659,-1.0585,-1.0623,-1.0616,-1.0605,-1.0518,-1.0501,-1.0495,-1.0461,-1.0451,-1.0448,-1.0446,-1.0445,-1.0436,-1.0437,0,0,0,0,0,0,-1.0849,-1.083,-1.0739,-1.0732,-1.0769,-1.0693,-1.068,-1.0662,-1.0585,-1.0572,-1.0607,-1.0601,-1.0507,-1.0499,-1.0491,-1.0501,-1.0448,-1.0445,-1.0443,-1.0434,-1.0436,-1.0438,0,0,0,0,0,0,-1.0852,-1.0842,-1.0743,-1.0779,-1.0764,-1.0693,-1.0674,-1.0661,-1.0644,-1.0573,-1.0559,-1.0603,-1.0506,-1.0495,-1.0478,-1.0495,-1.0444,-1.0441,-1.0433,-1.0435,-1.0437,-1.0521,0,0,0,0,0,0,-1.0856,-1.0844,-1.0848,-1.078,-1.0763,-1.0732,-1.0675,-1.066,-1.0639,-1.0631,-1.0565,-1.0553,-1.0504,-1.0483,-1.0475,-1.049,-1.0439,-1.0431,-1.0434,-1.0436,-1.0516,-1.0526,-1.0534,0,0,0,0,0,-1.0861,-1.0876,-1.0849,-1.0838,-1.0767,-1.0734,-1.0724,-1.0667,-1.0641,-1.0644,-1.0599,-1.0555,-1.0495,-1.0482,-1.0472,-1.0487,-1.0429,-1.0433,-1.0436,-1.0512,-1.0524,-1.0534,0,0,0,0,0,0,-1.0947,-1.0866,-1.0835,-1.0828,-1.0789,-1.0718,-1.0721,-1.0681,-1.0648,-1.0642,-1.0573,-1.0559,-1.055,-1.0516,-1.0503,-1.0496,-1.0456,-1.0458,-1.0517,-1.0528,-1.0537,-1.0544,-1.0436,0,0,0,0,0,-1.0966,-1.0946,-1.0875,-1.0876,-1.0858,-1.0793,-1.0777,-1.0737,-1.0693,-1.0675,-1.0628,-1.0587,-1.0559,-1.0541,-1.0512,-1.0511,-1.0495,-1.0517,-1.0525,-1.0533,-1.0535,-1.0532,-1.0541,-1.0449,-1.0449,-1.0449,0,0,-1.1003,-1.0956,-1.0948,-1.0892,-1.0857,-1.0838,-1.078,-1.0762,-1.0746,-1.0672,-1.0653,-1.0618,-1.0567,-1.0559,-1.0552,-1.0531,-1.0557,-1.0537,-1.0544,-1.0542,-1.0537,-1.0545,-1.0553,-1.0451,-1.0451,-1.045,0,0,-1.1062,-1.1024,-1.1021,-1.0987,-1.0934,-1.0891,-1.0891,-1.0826,-1.08,-1.078,-1.0724,-1.0705,-1.0658,-1.0624,-1.0601,-1.0647,-1.0605,-1.0639,-1.0685,-1.0683,-1.0691,-1.0697,-1.0713,-1.072,-1.0642,-1.0642,-1.0642,0,-1.1115,-1.1084,-1.1024,-1.1009,-1.0986,-1.0919,-1.0915,-1.0885,-1.0825,-1.0811,-1.0788,-1.0727,-1.0688,-1.0671,-1.0682,-1.0666,-1.0663,-1.0646,-1.0695,-1.07,-1.0705,-1.0719,-1.0726,-1.0647,-1.0646,-1.0646,-1.0645,0,-1.1151,-1.1131,-1.1134,-1.1079,-1.1056,-1.1047,-1.0986,-1.097,-1.0932,-1.0892,-1.0873,-1.0824,-1.0783,-1.0776,-1.0738,-1.0753,-1.0741,-1.0708,-1.0666,-1.0719,-1.0732,-1.0737,-1.0653,-1.0651,-1.065,-1.0649,0,0,-1.126,-1.1173,-1.1175,-1.1149,-1.1087,-1.1069,-1.1057,-1.1018,-1.1005,-1.0967,-1.0954,-1.0917,-1.0885,-1.0859,-1.0817,-1.0815,-1.0855,-1.0781,-1.0779,-1.0796,-1.0868,-1.0894,-1.0901,-1.0827,-1.0828,-1.0829,-1.0872,0,-1.1308,-1.1283,-1.1229,-1.122,-1.12,-1.1136,-1.1125,-1.1086,-1.1048,-1.1025,-1.0983,-1.0957,-1.0917,-1.0901,-1.0897,-1.0851,-1.0868,-1.0847,-1.0815,-1.0814,-1.0829,-1.0908,-1.0935,-1.0978,-1.0877,-1.0877,-1.0878,0,-1.136,-1.1326,-1.1316,-1.1255,-1.1244,-1.1236,-1.1195,-1.1174,-1.1128,-1.1101,-1.1072,-1.1026,-1.1009,-1.0973,-1.0948,-1.0935,-1.0919,-1.0895,-1.0895,-1.0889,-1.0849,-1.0904,-1.099,-1.0997,-1.0885,-1.0885,-1.0884,0,-1.1441,-1.1392,-1.1379,-1.1359,-1.1288,-1.1283,-1.1253,-1.1206,-1.1185,-1.115,-1.1136,-1.1099,-1.1079,-1.1051,-1.0997,-1.0975,-1.0979,-1.0937,-1.0955,-1.0956,-1.0958,-1.0958,-1.1043,-1.0949,-1.0948,-1.0948,-1.0948,0,-1.15,-1.1496,-1.1415,-1.1407,-1.1401,-1.1339,-1.1334,-1.1298,-1.1256,-1.124,-1.1182,-1.1168,-1.1097,-1.1075,-1.1032,-1.1019,-1.101,-1.0987,-1.0975,-1.0992,-1.0995,-1.0979,-1.0975,-1.095,-1.095,-1.0949,-1.0949,0,-1.1588,-1.1534,-1.1516,-1.145,-1.1433,-1.1431,-1.1375,-1.1364,-1.1323,-1.1304,-1.1295,-1.1231,-1.1202,-1.1145,-1.1099,-1.1071,-1.1066,-1.1047,-1.1082,-1.1075,-1.1096,-1.1095,-1.1173,-1.118,-1.1082,-1.1083,-1.1084,0,-1.1629,-1.1624,-1.1558,-1.1544,-1.1516,-1.1493,-1.1472,-1.1411,-1.1392,-1.1339,-1.1335,-1.1302,-1.1272,-1.1228,-1.1177,-1.1142,-1.112,-1.115,-1.1115,-1.1131,-1.112,-1.1121,-1.112,-1.1158,-1.116,-1.1161,-1.1162,0,-1.1707,-1.1681,-1.1653,-1.1617,-1.1594,-1.1562,-1.1527,-1.1518,-1.1449,-1.143,-1.14,-1.1377,-1.1331,-1.1298,-1.1256,-1.1224,-1.1181,-1.1173,-1.1175,-1.1192,-1.1212,-1.1201,-1.1104,-1.1172,-1.1171,-1.117,-1.1169,-1.1169,-1.1772,-1.1765,-1.1718,-1.1689,-1.1657,-1.1626,-1.1613,-1.1571,-1.1544,-1.1503,-1.1468,-1.1441,-1.1395,-1.1334,-1.1305,-1.1282,-1.1262,-1.1265,-1.1266,-1.1267,-1.1274,-1.1217,-1.1274,-1.1274,-1.1274,-1.1273,-1.1273,0,-1.1847,-1.1814,-1.1788,-1.1741,-1.1719,-1.1681,-1.1641,-1.1625,-1.1601,-1.1562,-1.1534,-1.1499,-1.1467,-1.1414,-1.1378,-1.137,-1.1349,-1.1362,-1.1362,-1.1355,-1.1295,-1.1296,-1.138,-1.138,-1.138,-1.1379,-1.1379,-1.1379,-1.1884,-1.187,-1.1838,-1.1808,-1.1773,-1.1747,-1.1727,-1.1698,-1.1666,-1.163,-1.1604,-1.1569,-1.1524,-1.1484,-1.1453,-1.1438,-1.1427,-1.1447,-1.1426,-1.137,-1.136,-1.135,-1.1351,-1.1445,-1.1445,-1.1488,-1.1488,-1.1489]},{"header":{"parameterUnit":"m.s-1","parameterCategory":1,"la1":30.2991,"la2":30.254,"lo1":-89.0895,"lo2":-89.0444,"dy":0.0017,"dx":0.0017,"nx":28,"ny":28,"refTime":"2025-06-17T21:00:00:Z","depth":0,"parameterNumber":3,"parameterNumberName":"V-component_of_WINDS"},"data":[0,0,0,0,0,0,0,0,0,0,0,0,0,0,0,0,0,0,0,0,0,0,0,0,0,0,0,0,0,0,0,0,0,0,0,0,0,0,0,0,0,0,0,0,0,0,0,0,0,0,0,0,0,0,0,0,0,0,1.3917,1.3917,0,1.399,1.3991,1.3991,1.4023,1.4023,1.4022,1.4022,1.4096,1.4098,1.41,0,0,0,0,0,0,0,0,0,0,0,0,0,1.3803,1.3805,1.3917,1.3918,1.3918,1.399,1.3991,1.3992,1.4023,1.4023,1.4022,1.4022,1.4095,1.4097,1.41,0,0,0,0,0,0,0,0,0,0,0,0,0,1.3862,1.3806,1.3916,1.3943,1.3946,1.3989,1.3991,1.3992,1.4023,1.4023,1.4022,1.4022,1.4094,1.4097,1.41,1.4123,0,0,1.411,1.4111,0,0,0,0,0,0,0,0,1.3859,1.3866,1.3938,1.3941,1.3944,1.3997,1.3978,1.4036,1.4023,1.3993,1.4022,1.4022,1.4063,1.4069,1.4083,1.4126,1.413,1.411,1.4112,1.4113,1.4114,0,0,0,0,0,0,0,1.3854,1.3863,1.3945,1.3939,1.3943,1.395,1.3959,1.3989,1.4028,1.3996,1.3998,1.4007,1.4065,1.408,1.4085,1.4131,1.411,1.4113,1.4115,1.4116,1.4198,1.4198,0,0,0,0,0,0,1.3846,1.3859,1.3943,1.3948,1.39,1.3953,1.3962,1.398,1.4028,1.4035,1.4007,1.4008,1.4074,1.4081,1.4087,1.4118,1.4113,1.4116,1.4118,1.4198,1.4198,1.4198,0,0,0,0,0,0,1.3844,1.3853,1.394,1.3904,1.3916,1.3955,1.3975,1.3982,1.3997,1.4036,1.4043,1.4015,1.4074,1.4083,1.4114,1.4121,1.4118,1.412,1.4197,1.4198,1.4198,1.4179,0,0,0,0,0,0,1.384,1.3852,1.3861,1.3904,1.3918,1.3966,1.3976,1.3983,1.4002,1.4004,1.4046,1.4052,1.4075,1.4109,1.4117,1.4125,1.4123,1.4197,1.4197,1.4198,1.4179,1.4179,1.4178,0,0,0,0,0,1.3836,1.3853,1.3862,1.3872,1.393,1.3966,1.3974,1.4,1.4003,1.4012,1.4038,1.4051,1.4119,1.4112,1.4122,1.413,1.4197,1.4197,1.4198,1.4179,1.4179,1.4178,0,0,0,0,0,0,1.3809,1.3859,1.3869,1.39,1.3929,1.3972,1.3985,1.3999,1.4027,1.4028,1.4059,1.4068,1.4097,1.4116,1.4109,1.4155,1.4159,1.4161,1.4141,1.4141,1.4141,1.4136,1.4125,0,0,0,0,0,1.3806,1.3832,1.3874,1.3897,1.3911,1.3945,1.3962,1.398,1.4011,1.4023,1.4051,1.408,1.4108,1.4125,1.4153,1.4182,1.4192,1.4192,1.4192,1.4191,1.4194,1.4211,1.4212,1.4201,1.4201,1.4201,0,0,1.3802,1.3832,1.3846,1.3893,1.3917,1.3943,1.3955,1.3982,1.4002,1.4027,1.4059,1.408,1.4114,1.4145,1.4159,1.4162,1.4199,1.4192,1.4192,1.4194,1.4212,1.4213,1.4214,1.4201,1.4201,1.4201,0,0,1.3807,1.3832,1.3855,1.3879,1.3916,1.3939,1.3944,1.3985,1.4,1.4033,1.4053,1.4076,1.4123,1.4147,1.4166,1.418,1.4194,1.4188,1.4186,1.4203,1.4204,1.4205,1.4211,1.4213,1.419,1.419,1.419,0,1.3796,1.3836,1.3864,1.389,1.391,1.3935,1.3958,1.398,1.4024,1.4037,1.404,1.4101,1.4125,1.4162,1.4166,1.418,1.4187,1.4184,1.4202,1.4203,1.4204,1.4211,1.4213,1.4189,1.4189,1.419,1.419,0,1.3822,1.3849,1.3863,1.3906,1.3928,1.3952,1.3983,1.4002,1.4018,1.404,1.4073,1.4104,1.4139,1.4149,1.4164,1.4188,1.4189,1.4196,1.42,1.4204,1.4211,1.4213,1.4188,1.4188,1.4189,1.4189,0,0,1.3811,1.387,1.3875,1.3895,1.3938,1.396,1.3985,1.402,1.4036,1.4065,1.4088,1.4127,1.4135,1.4156,1.4174,1.4189,1.42,1.4195,1.4196,1.4195,1.4229,1.4224,1.4226,1.4209,1.4209,1.421,1.4226,0,1.3823,1.3871,1.3897,1.3934,1.396,1.3984,1.4006,1.4035,1.4057,1.4082,1.4105,1.4134,1.4141,1.4154,1.4169,1.4195,1.4207,1.4194,1.423,1.4231,1.4222,1.4229,1.4224,1.4238,1.4229,1.4229,1.423,0,1.3843,1.3873,1.3912,1.3953,1.3965,1.3985,1.402,1.4043,1.4076,1.4091,1.4115,1.4133,1.4161,1.4163,1.4202,1.4193,1.4209,1.4224,1.4225,1.423,1.4231,1.4235,1.4243,1.4246,1.4234,1.4233,1.4233,0,1.3832,1.3883,1.3913,1.3929,1.3978,1.3991,1.4012,1.4045,1.4064,1.4094,1.4108,1.414,1.4158,1.4182,1.4209,1.4208,1.4246,1.425,1.426,1.4259,1.4267,1.4267,1.4279,1.4276,1.4276,1.4276,1.4276,0,1.3843,1.3866,1.3909,1.3928,1.3955,1.3985,1.4011,1.4033,1.4063,1.4086,1.4109,1.413,1.4164,1.4189,1.421,1.424,1.4248,1.4261,1.4266,1.426,1.4258,1.4271,1.4271,1.4277,1.4276,1.4276,1.4276,0,1.3836,1.3866,1.3901,1.3944,1.3955,1.3974,1.401,1.403,1.4053,1.4082,1.4091,1.4127,1.4158,1.4187,1.4229,1.4243,1.4274,1.428,1.4263,1.4266,1.4275,1.4274,1.4297,1.4302,1.4294,1.4294,1.4294,0,1.3841,1.386,1.3905,1.3923,1.3944,1.3972,1.3992,1.4022,1.4043,1.4082,1.4097,1.413,1.4159,1.4208,1.4238,1.427,1.4278,1.4284,1.4283,1.4276,1.4279,1.4278,1.4281,1.4283,1.4283,1.4283,1.4283,0,1.3847,1.3861,1.389,1.3925,1.3949,1.3977,1.4006,1.4019,1.4055,1.4076,1.4109,1.4132,1.4175,1.4208,1.4244,1.4265,1.428,1.4283,1.4287,1.4281,1.4271,1.4278,1.4263,1.4283,1.4283,1.4283,1.4283,1.4283,1.3847,1.3865,1.3901,1.3933,1.3958,1.3985,1.4005,1.4031,1.406,1.4098,1.4113,1.4147,1.418,1.423,1.4251,1.4278,1.4281,1.4287,1.4289,1.429,1.4289,1.4266,1.4284,1.4285,1.4285,1.4285,1.4285,0,1.3855,1.3879,1.3908,1.3949,1.3974,1.3987,1.402,1.404,1.407,1.41,1.4128,1.4166,1.4198,1.4231,1.4265,1.428,1.4288,1.4288,1.4288,1.4293,1.4284,1.4277,1.4281,1.4281,1.4281,1.4281,1.4281,1.4281,1.3862,1.3895,1.3913,1.3958,1.3982,1.4016,1.4034,1.4059,1.4083,1.4125,1.4153,1.4174,1.4205,1.4242,1.4272,1.4281,1.4293,1.4291,1.4302,1.4293,1.4293,1.4293,1.4287,1.4294,1.4294,1.4309,1.4309,1.4309]}]]